Home   Weather   Zielona Góra   Past weeks

Flag for Poland Past Weather in Zielona Góra, Poland — Yesterday and Last 2 Weeks

Now
19 °F

Fog.


Feels Like: 19 °F
Forecast: 17 / 24 °F
Wind: 2 mph from South

Location: Zielona Gora

Current Time: Jan 18, 2017 at 11:38:37 pm

Latest Report: Jan 18, 2017 at 10:00 pm


Visibility: 0 mi

Pressure: 30.78 "Hg

Humidity: 96%

Dew Point: 18 °F

Location of Zielona GóraLocation

Past Weather in Zielona Góra — Graph

°F

Zielona Góra Temperature Yesterday

Maximum temperature yesterday: 29 °F (at 1:00 pm)
Minimum temperature yesterday: 25 °F (at 11:00 pm)
Average temperature yesterday: 27 °F

High & Low Weather Summary for the Past Weeks

 TemperatureHumidityPressure
High40 °F (Jan 13, 11:00 am)100% (Jan 9, 9:00 pm)30.78 "Hg (Jan 9, 9:00 pm)
Low10 °F (Jan 11, 8:00 am)57% (Jan 5, 2:00 pm)29.12 "Hg (Jan 13, 9:00 am)
Average26 °F91%30.10 "Hg
* Reported Jan 3 10:00 pm — Jan 18 10:00 pm, Zielona Góra, Weather by CustomWeather, © 2017

Note: Actual official high and low records may vary slightly from our data, if they occured in-between our weather recording intervals... More about our weather records

Advertising

Zielona Góra Weather History for the Previous 24 Hours

Scroll right to see more
 ConditionsComfort  
Time TempWeatherWind HumidityBarometerVisibility
10:00 pm
Wed, Jan 18
19 °FFog.2 mph96%30.78 "Hg0 mi
9:00 pm20 °FFog.2 mph97%30.77 "Hg0 mi
8:00 pm20 °FFog.1 mph97%30.78 "Hg0 mi
7:00 pm21 °FFog.2 mph97%30.78 "Hg1 mi
6:00 pm22 °FFog.1 mph98%30.78 "Hg1 mi
5:00 pm22 °FFog.1 mph98%30.78 "Hg2 mi
4:00 pm23 °FFog.2 mph98%30.78 "Hg2 mi
3:00 pm24 °FFog.2 mph98%30.76 "Hg2 mi
2:00 pm24 °FFog.2 mph98%30.76 "Hg3 mi
1:00 pm23 °FFog.1 mph98%30.76 "Hg2 mi
12:00 pm24 °FFog.1 mph98%30.78 "Hg2 mi
11:00 am23 °FFog.1 mph98%30.78 "Hg2 mi
10:00 am23 °FFog.1 mph98%30.78 "Hg2 mi
9:00 am23 °FFog.No wind98%30.78 "Hg1 mi
8:00 am23 °FFog.1 mph98%30.76 "Hg1 mi
7:00 am23 °FFog.No wind98%30.74 "Hg1 mi
6:00 am23 °FFog.No wind98%30.73 "Hg1 mi
5:00 am24 °FSnow flurries. Low clouds.1 mph99%30.73 "Hg1 mi
4:00 am24 °FFog.1 mph99%30.73 "Hg1 mi
3:00 am24 °FLow clouds.1 mph100%30.73 "Hg1 mi
2:00 am25 °FFog.1 mph99%30.73 "Hg1 mi
1:00 am25 °FFog.1 mph98%30.72 "Hg1 mi
12:00 am25 °FFog.No wind98%30.71 "Hg2 mi
11:00 pm
Tue, Jan 17
25 °FFog.1 mph97%30.71 "Hg4 mi
Weather by CustomWeather, © 2017

See weather overviewHow to use our weather pages